TimeEDT,TemperatureF,Dew PointF,Humidity,Sea Level PressureIn,VisibilityMPH,Wind Direction,Wind SpeedMPH,Gust SpeedMPH,PrecipitationIn,Events,Conditions,WindDirDegrees,DateUTC
12:16 AM,52.3,51.8,98,30.04,10.0,Calm,Calm,-,N/A,,Clear,0,2013-07-25 04:16:00
12:36 AM,52.7,52.5,99,30.04,10.0,Calm,Calm,-,N/A,,Clear,0,2013-07-25 04:36:00
12:56 AM,51.3,51.3,100,30.04,10.0,Calm,Calm,-,N/A,,Clear,0,2013-07-25 04:56:00
1:15 AM,51.1,51.1,100,30.04,10.0,Calm,Calm,-,N/A,,Clear,0,2013-07-25 05:15:00
1:36 AM,51.1,51.1,100,30.04,10.0,Calm,Calm,-,N/A,,Clear,0,2013-07-25 05:36:00
1:56 AM,50.4,50.4,100,30.04,10.0,Calm,Calm,-,N/A,,Clear,0,2013-07-25 05:56:00
2:15 AM,50.2,50.2,100,30.04,10.0,South,4.6,-,N/A,,Clear,180,2013-07-25 06:15:00
2:36 AM,52.3,52.0,99,30.04,10.0,Calm,Calm,-,N/A,,Clear,0,2013-07-25 06:36:00
2:56 AM,51.8,51.4,99,30.04,10.0,Calm,Calm,-,N/A,,Clear,0,2013-07-25 06:56:00
3:16 AM,50.7,50.7,100,30.04,10.0,Calm,Calm,-,N/A,,Clear,0,2013-07-25 07:16:00
3:36 AM,50.2,50.2,100,30.04,10.0,Calm,Calm,-,N/A,,Clear,0,2013-07-25 07:36:00
3:56 AM,49.6,49.6,100,30.04,10.0,Calm,Calm,-,N/A,,Clear,0,2013-07-25 07:56:00
4:16 AM,49.3,49.3,100,30.04,10.0,Calm,Calm,-,N/A,,Clear,0,2013-07-25 08:16:00
4:36 AM,49.1,49.1,100,30.05,10.0,Calm,Calm,-,N/A,,Clear,0,2013-07-25 08:36:00
4:56 AM,49.3,49.3,100,30.05,10.0,Calm,Calm,-,N/A,,Clear,0,2013-07-25 08:56:00
5:16 AM,49.3,49.3,100,30.05,10.0,Calm,Calm,-,N/A,,Clear,0,2013-07-25 09:16:00
5:36 AM,49.8,49.8,100,30.05,10.0,Calm,Calm,-,N/A,,Clear,0,2013-07-25 09:36:00
5:56 AM,50.0,50.0,100,30.05,10.0,Calm,Calm,-,N/A,,Clear,0,2013-07-25 09:56:00
6:16 AM,49.3,49.3,100,30.06,10.0,Calm,Calm,-,N/A,,Clear,0,2013-07-25 10:16:00
6:36 AM,49.3,49.3,100,30.06,10.0,Calm,Calm,-,N/A,,Clear,0,2013-07-25 10:36:00
6:56 AM,51.1,51.1,100,30.06,10.0,SSE,4.6,-,N/A,,Clear,150,2013-07-25 10:56:00
7:16 AM,54.7,54.7,100,30.06,10.0,SSE,3.5,-,N/A,,Clear,160,2013-07-25 11:16:00
7:36 AM,56.5,56.5,100,30.06,10.0,SSE,4.6,-,N/A,,Clear,150,2013-07-25 11:36:00
7:56 AM,58.1,56.8,96,30.06,10.0,South,4.6,-,N/A,,Clear,170,2013-07-25 11:56:00
8:15 AM,59.4,56.8,91,30.07,10.0,South,5.8,-,N/A,,Clear,190,2013-07-25 12:15:00
8:36 AM,61.0,56.8,86,30.07,10.0,South,6.9,-,N/A,,Scattered Clouds,170,2013-07-25 12:36:00
8:56 AM,62.1,55.8,80,30.08,10.0,South,4.6,-,N/A,,Scattered Clouds,170,2013-07-25 12:56:00
9:15 AM,63.7,56.1,76,30.08,10.0,SSE,6.9,-,N/A,,Clear,160,2013-07-25 13:15:00
9:36 AM,64.9,55.9,73,30.08,10.0,South,6.9,-,N/A,,Scattered Clouds,190,2013-07-25 13:36:00
9:56 AM,66.0,55.8,69,30.08,10.0,South,9.2,-,N/A,,Scattered Clouds,190,2013-07-25 13:56:00
10:16 AM,64.9,54.9,70,30.08,10.0,South,8.1,-,N/A,,Overcast,190,2013-07-25 14:16:00
10:36 AM,64.8,54.9,70,30.08,10.0,SSE,6.9,-,N/A,,Overcast,160,2013-07-25 14:36:00
10:56 AM,64.9,54.7,69,30.08,10.0,SSE,9.2,-,N/A,,Overcast,160,2013-07-25 14:56:00
11:15 AM,66.4,55.4,68,30.08,10.0,SSE,5.8,-,N/A,,Mostly Cloudy,160,2013-07-25 15:15:00
11:36 AM,67.3,54.7,64,30.08,10.0,South,8.1,-,N/A,,Clear,190,2013-07-25 15:36:00
11:56 AM,67.3,54.5,63,30.08,10.0,SSW,8.1,-,N/A,,Clear,200,2013-07-25 15:56:00
12:16 PM,67.3,55.2,65,30.08,10.0,South,5.8,-,N/A,,Clear,180,2013-07-25 16:16:00
12:36 PM,68.2,54.9,62,30.09,10.0,SSE,6.9,-,N/A,,Mostly Cloudy,150,2013-07-25 16:36:00
12:55 PM,69.4,53.2,56,30.08,10.0,Calm,Calm,-,N/A,,Overcast,0,2013-07-25 16:55:00
1:16 PM,71.1,52.2,51,30.08,10.0,SW,4.6,-,N/A,,Scattered Clouds,230,2013-07-25 17:16:00
1:36 PM,71.1,53.1,53,30.08,10.0,South,4.6,-,N/A,,Clear,190,2013-07-25 17:36:00
1:56 PM,70.5,55.0,58,30.08,10.0,SSE,5.8,-,N/A,,Clear,160,2013-07-25 17:56:00
2:16 PM,70.7,55.9,59,30.08,10.0,SSE,8.1,-,N/A,,Clear,150,2013-07-25 18:16:00
2:36 PM,70.7,55.8,59,30.07,10.0,SE,4.6,-,N/A,,Clear,130,2013-07-25 18:36:00
2:56 PM,70.3,55.6,59,30.06,10.0,SE,9.2,-,N/A,,Clear,130,2013-07-25 18:56:00
3:16 PM,71.2,56.7,60,30.06,10.0,SSE,9.2,-,N/A,,Clear,150,2013-07-25 19:16:00
3:36 PM,70.9,55.8,59,30.06,10.0,SSE,9.2,-,N/A,,Clear,150,2013-07-25 19:36:00
3:56 PM,70.3,55.9,60,30.06,10.0,SSE,8.1,-,N/A,,Clear,150,2013-07-25 19:56:00
4:16 PM,67.3,55.6,66,30.06,10.0,SE,8.1,17.3,N/A,,Clear,140,2013-07-25 20:16:00
4:36 PM,67.8,57.7,70,30.06,10.0,SE,6.9,-,N/A,,Clear,140,2013-07-25 20:36:00
4:56 PM,69.4,56.8,64,30.06,10.0,ESE,12.7,17.3,N/A,,Clear,120,2013-07-25 20:56:00
5:16 PM,68.4,55.8,64,30.06,10.0,SSE,10.4,18.4,N/A,,Clear,150,2013-07-25 21:16:00
5:36 PM,67.8,55.4,64,30.06,10.0,SE,8.1,16.1,N/A,,Clear,130,2013-07-25 21:36:00
5:55 PM,67.3,55.4,66,30.05,10.0,SE,8.1,18.4,N/A,,Clear,130,2013-07-25 21:55:00
6:16 PM,67.1,55.6,66,30.05,10.0,SSE,9.2,17.3,N/A,,Clear,150,2013-07-25 22:16:00
6:35 PM,66.9,55.8,67,30.04,10.0,SSE,8.1,-,N/A,,Clear,150,2013-07-25 22:35:00
6:56 PM,66.4,55.6,68,30.04,10.0,SE,10.4,-,N/A,,Clear,140,2013-07-25 22:56:00
7:16 PM,65.5,55.4,70,30.03,10.0,SE,9.2,-,N/A,,Clear,140,2013-07-25 23:16:00
7:35 PM,64.8,55.2,71,30.03,10.0,SE,9.2,19.6,N/A,,Clear,140,2013-07-25 23:35:00
7:56 PM,64.4,55.6,73,30.03,10.0,SE,8.1,-,N/A,,Clear,130,2013-07-25 23:56:00
8:16 PM,63.5,56.1,77,30.03,10.0,SE,6.9,-,N/A,,Clear,130,2013-07-26 00:16:00
8:36 PM,63.0,56.3,79,30.03,10.0,SE,5.8,-,N/A,,Clear,130,2013-07-26 00:36:00
8:56 PM,62.8,55.8,78,30.03,10.0,ESE,6.9,-,N/A,,Clear,120,2013-07-26 00:56:00
9:16 PM,62.4,55.4,78,30.03,10.0,SE,6.9,-,N/A,,Clear,130,2013-07-26 01:16:00
9:36 PM,62.6,55.4,77,30.03,10.0,SE,8.1,-,N/A,,Clear,130,2013-07-26 01:36:00
9:56 PM,62.6,55.4,77,30.03,10.0,SE,5.8,-,N/A,,Clear,140,2013-07-26 01:56:00
10:16 PM,62.4,55.8,79,30.02,10.0,SE,9.2,-,N/A,,Clear,130,2013-07-26 02:16:00
10:36 PM,62.6,56.5,80,30.02,10.0,SE,5.8,-,N/A,,Clear,130,2013-07-26 02:36:00
10:56 PM,62.6,57.2,82,30.02,10.0,SE,6.9,-,N/A,,Clear,140,2013-07-26 02:56:00
11:15 PM,62.6,57.7,84,30.02,10.0,SE,6.9,-,N/A,,Clear,140,2013-07-26 03:15:00
11:36 PM,62.2,58.1,86,30.02,10.0,SE,6.9,-,N/A,,Clear,140,2013-07-26 03:36:00
11:56 PM,62.2,58.6,88,30.01,10.0,SE,9.2,-,N/A,,Clear,140,2013-07-26 03:56:00